Flag for Russia Weather past 2 weeks in Samara, Russia

Now
1 °F

Clear.


Feels Like: -13 °F
Forecast: 2 / 20 °F
Wind: 8 mph from West

Location: Samara

Current Time: Dec 27, 2014 at 7:19:29 AM

Latest Report: Dec 27, 2014 at 7:00 AM


Visibility: 10 mi

Pressure: 30.15 "Hg

Humidity: 85%

Dew point: -2 °F

Location of SamaraLocation

Historic Weather in Samara — Graph

°F

Samara temperature yesterday

Maximum temperature yesterday: 30 °F (at 4:30 AM)
Minimum temperature yesterday: 7 °F (at 9:30 PM)
Average temperature yesterday: 17 °F

Past Weeks' High & Low Weather Summary

 TemperatureHumidityPressure
High36 °F (Dec 21, 11:30 AM)100% (Dec 12, 4:30 PM)30.42 "Hg (Dec 12, 4:30 PM)
Low-4 °F (Dec 27, 4:30 AM)73% (Dec 26, 1:30 PM)29.06 "Hg (Dec 24, 10:30 AM)
Average26 °F91%29.89 "Hg
* Reported Dec 12 6:00 AM — Dec 27 6:00 AM, Samara, Weather by CustomWeather, © 2014

Note: Actual official high and low records may vary slightly from our data, if they occured in-between our weather recording intervals... More about our weather records

Advertising

Samara weather history for previous 24 hours

 ConditionsComfort  
Time TempWeatherWind HumidityBarometerVisibility
6:00 AM
Dec 27
5 °FClear.10 mph85%30.12 "Hg10 mi
5:30 AM5 °FClear.10 mph85%30.12 "Hg10 mi
5:00 AM1 °FClear.13 mph85%30.09 "Hg10 mi
4:30 AM-4 °FClear.10 mph84%30.09 "Hg10 mi
4:00 AM5 °FClear.8 mph85%30.09 "Hg10 mi
3:30 AM5 °FClear.6 mph92%30.09 "Hg10 mi
3:00 AM5 °FClear.8 mph85%30.07 "Hg10 mi
2:30 AM7 °FClear.10 mph85%30.07 "Hg10 mi
2:00 AM5 °FClear.8 mph85%30.07 "Hg10 mi
1:30 AM5 °FClear.10 mph85%30.04 "Hg10 mi
1:00 AM7 °FClear.15 mph78%30.04 "Hg10 mi
12:30 AM7 °FClear.15 mph78%30.04 "Hg10 mi
12:00 AM7 °FClear.17 mph85%30.04 "Hg10 mi
11:30 PM
Dec 26
7 °FClear.17 mph78%30.01 "Hg10 mi
11:00 PM7 °FClear.15 mph85%30.01 "Hg10 mi
10:30 PM7 °FClear.15 mph85%29.98 "Hg10 mi
10:00 PM7 °FClear.15 mph85%29.98 "Hg10 mi
9:30 PM7 °FPartly cloudy.13 mph85%29.98 "HgN/A
9:00 PM9 °FPartly cloudy.15 mph78%29.95 "HgN/A
8:30 PM9 °FPartly cloudy.13 mph78%29.92 "HgN/A
8:00 PM9 °FPartly cloudy.8 mph78%29.92 "HgN/A
7:30 PM10 °FPartly cloudy.10 mph79%29.89 "HgN/A
7:00 PM10 °FLight snow. Mostly cloudy.13 mph79%29.89 "HgN/A
6:30 PM10 °FOvercast.15 mph79%29.86 "HgN/A
6:00 PM10 °FOvercast.13 mph79%29.83 "HgN/A
5:30 PM10 °FMostly cloudy.10 mph79%29.83 "HgN/A
5:00 PM10 °FLight snow. Mostly cloudy.10 mph79%29.80 "HgN/A
4:30 PM12 °FLight snow. Ice fog.13 mph79%29.80 "Hg3 mi
4:00 PM12 °FLight snow. Ice fog.13 mph79%29.74 "Hg2 mi
3:30 PM12 °FMostly cloudy.13 mph79%29.74 "Hg2 mi
3:00 PM12 °FMostly cloudy.20 mph73%29.71 "Hg2 mi
2:30 PM12 °FBroken clouds.15 mph73%29.68 "HgN/A
2:00 PM12 °FIce fog.13 mph79%29.65 "Hg2 mi
1:30 PM14 °FCloudy.17 mph73%29.62 "Hg2 mi
1:00 PM16 °FIce fog.13 mph79%29.62 "Hg2 mi
12:30 PM18 °FIce fog.13 mph79%29.56 "Hg2 mi
12:00 PM18 °FSnow. Mostly cloudy.15 mph79%29.53 "Hg1 mi
11:30 AM19 °FLight snow. Ice fog.15 mph79%29.50 "Hg1 mi
11:00 AM18 °FIce fog.13 mph86%29.50 "Hg2 mi
10:30 AM18 °FIce fog.15 mph86%29.47 "Hg3 mi
10:00 AM19 °FLight snow. Ice fog.15 mph79%29.42 "Hg2 mi
9:30 AM19 °FLight snow. Ice fog.13 mph86%29.39 "Hg2 mi
9:00 AM21 °FLight snow. Ice fog.13 mph86%29.36 "Hg2 mi
8:30 AM21 °FSnow. Mostly cloudy.13 mph86%29.33 "Hg1 mi
8:00 AM23 °FSnow. Mostly cloudy.15 mph86%29.30 "Hg1 mi
7:30 AM27 °FLight snow. Overcast.15 mph86%29.24 "Hg2 mi
Weather by CustomWeather, © 2014

See weather overviewHow to use our weather pages